Regional Weather Roundup
Issued by NWS

Home | Current Version | Previous Version | Graphics & Text | Print | Product List | Glossary On
Versions: 1 2 3 4 5 6 7 8 9 10 11 12 13 14 15 16 17 18 19 20 21 22 23 24 25 26 27 28 29 30 31 32 33 34 35 36 37 38 39 40 41 42 43 44 45 46 47 48 49 50
000
ASUS43 KOAX 140502
RWRNE

WEATHER ROUNDUP FOR NEBRASKA
NATIONAL WEATHER SERVICE OMAHA NE
1100 PM CST SAT FEB 13 2016

NOTES: SATELLITE DATA IS BEING USED TO AUGMENT CLOUD COVER ABOVE
       12000 FEET.
       "FAIR" INDICATES FEW OR NO CLOUDS BELOW 12,000 FEET WITH NO
       SIGNIFICANT WEATHER AND/OR OBSTRUCTIONS TO VISIBILITY.

  * THESE STATIONS DO NOT REPORT WEATHER SUCH AS RAIN...SNOW OR FOG.

NEZ001>004-019>022-054>056-140600-
NEBRASKA PANHANDLE

CITY           SKY/WX    TMP DP  RH WIND       PRES   REMARKS
SCOTTSBLUFF    CLEAR     33  27  78 NW12      30.03R WCI  24
ALLIANCE       CLEAR     34  29  82 NW20      29.97R WCI  23
CHADRON        CLEAR     34  30  85 W10       29.97S WCI  26
SIDNEY         PTCLDY    34  29  82 NW16      30.03R WCI  24
$$

NEZ057>060-069>072-079>082-140600-
SOUTHWEST NEBRASKA

CITY           SKY/WX    TMP DP  RH WIND       PRES   REMARKS
NORTH PLATTE   MOCLDY    28  24  85 SW3       29.97F
IMPERIAL       CLEAR     26  23  88 W3        30.00F
MCCOOK         CLOUDY    25  19  78 W6        30.03R WCI  18
$$

NEZ005>010-023>029-035>040-094-140600-
NORTH CENTRAL NEBRASKA

CITY           SKY/WX    TMP DP  RH WIND       PRES   REMARKS
VALENTINE      CLOUDY    35  31  85 NW21G31   29.82R WCI  24
BROKEN BOW     MOCLDY    22  13  68 W8        29.99R WCI  12
ORD            CLOUDY    18   9  68 S12       29.99S WCI   5
$$

NEZ041-046>049-061>064-073>077-083>087-140600-
SOUTH CENTRAL NEBRASKA

CITY           SKY/WX    TMP DP  RH WIND       PRES   REMARKS
GRAND ISLAND   CLOUDY    17   8  67 S14       30.03F WCI   3
HASTINGS       CLOUDY    18   7  62 SE10      30.03F WCI   6
KEARNEY *      CLOUDY    18   9  68 S9        30.03R WCI   6
$$

NEZ011>018-030>034-042>045-140600-
NORTHEAST NEBRASKA

CITY           SKY/WX    TMP DP  RH WIND       PRES   REMARKS
NORFOLK        CLOUDY    16   7  67 SE15      30.04F WCI   1
COLUMBUS *     CLOUDY    18   0  45 SE15G22   30.08F WCI   3
TEKAMAH        CLOUDY    18   6  59 SE18      30.15F WCI   2
$$

NEZ050>053-065>068-078-088>093-140600-
SOUTHEAST NEBRASKA

CITY           SKY/WX    TMP DP  RH WIND       PRES   REMARKS
LINCOLN        MOCLDY    20   6  55 SE14      30.14F WCI   7
OMAHA EPPLEY   CLOUDY    19   4  51 SE20      30.19F WCI   3
FALLS CITY     CLOUDY    21   2  43 SE14G22   30.19F WCI   8
$$

NEZ044-045-051>053-067-140600-
OMAHA AREA

CITY           SKY/WX    TMP DP  RH WIND       PRES   REMARKS
OMAHA EPPLEY   CLOUDY    19   4  51 SE20      30.19F WCI   3
OFFUTT AFB     CLOUDY    19   3  49 SE18      30.17F WCI   4
$$



USA.gov is the U.S. government's official web portal to all federal, state and local government web resources and services.